| time (UTC) | temp C | wind direction | speed KPH | gust KPH | rain 1hr cm | rain 24hr cm | rain mn cm | humidity % | barometer mb |
| 20260506191803 | 0 | 19 | 3.2 | 19.3 | 0.00 | 0.00 | 0.00 | 56 | 1012.4 |
| 20260506191115 | 0 | 360 | 0.0 | 19.3 | 0.00 | 0.00 | 0.00 | 56 | 1012.2 |
| 20260506190212 | 0 | 347 | 8.0 | 8.0 | 0.00 | 0.00 | 0.00 | 56 | 1012.2 |
| 20260506185614 | 1 | 334 | 8.0 | 8.0 | 0.00 | 0.00 | 0.00 | 56 | 1012.1 |
| 20260506184716 | 1 | 5 | 3.2 | 9.7 | 0.00 | 0.00 | 0.00 | 55 | 1012.1 |
| 20260506183604 | 1 | 334 | 1.6 | 4.8 | 0.00 | 0.00 | 0.00 | 54 | 1012.0 |
| 20260506182916 | 1 | 327 | 1.6 | 6.4 | 0.00 | 0.00 | 0.00 | 54 | 1011.9 |
| 20260506182013 | 1 | 279 | 3.2 | 4.8 | 0.00 | 0.00 | 0.00 | 53 | 1011.7 |
| 20260506180903 | 1 | 290 | 0.0 | 12.9 | 0.00 | 0.00 | 0.00 | 50 | 1011.6 |
| 20260506180213 | 2 | 279 | 6.4 | 12.9 | 0.00 | 0.00 | 0.00 | 50 | 1011.6 |
| 20260506175615 | 2 | 265 | 8.0 | 11.3 | 0.00 | 0.00 | 0.00 | 50 | 1011.5 |
| 20260506174717 | 2 | 287 | 4.8 | 12.9 | 0.00 | 0.00 | 0.00 | 49 | 1011.5 |
| 20260506173604 | 3 | 308 | 9.7 | 9.7 | 0.00 | 0.00 | 0.00 | 47 | 1011.5 |
| 20260506172703 | 3 | 299 | 4.8 | 17.7 | 0.00 | 0.00 | 0.00 | 47 | 1011.4 |
| 20260506171803 | 3 | 294 | 4.8 | 19.3 | 0.00 | 0.00 | 0.00 | 47 | 1011.4 |
| 20260506171116 | 2 | 297 | 9.7 | 22.5 | 0.00 | 0.00 | 0.00 | 48 | 1011.3 |
| 20260506170004 | 2 | 317 | 3.2 | 9.7 | 0.00 | 0.00 | 0.00 | 49 | 1011.3 |
| 20260506165615 | 2 | 284 | 9.7 | 9.7 | 0.00 | 0.00 | 0.00 | 50 | 1011.3 |
| 20260506164712 | 3 | 301 | 9.7 | 17.7 | 0.00 | 0.00 | 0.00 | 47 | 1011.2 |
| 20260506163603 | 4 | 276 | 16.1 | 16.1 | 0.00 | 0.00 | 0.00 | 45 | 1011.4 |
| 20260506162703 | 3 | 271 | 6.4 | 14.5 | 0.00 | 0.00 | 0.00 | 45 | 1011.4 |
| 20260506162015 | 4 | 282 | 8.0 | 20.9 | 0.00 | 0.00 | 0.00 | 46 | 1011.4 |
| 20260506160903 | 5 | 309 | 12.9 | 20.9 | 0.00 | 0.00 | 0.00 | 43 | 1011.4 |
| 20260506160214 | 6 | 333 | 8.0 | 8.0 | 0.00 | 0.00 | 0.00 | 43 | 1011.5 |
| 20260506155616 | 6 | 305 | 4.8 | 9.7 | 0.00 | 0.00 | 0.00 | 43 | 1011.5 |
| 20260506154713 | 6 | 356 | 3.2 | 12.9 | 0.00 | 0.00 | 0.00 | 43 | 1011.5 |
| 20260506153603 | 5 | 276 | 4.8 | 20.9 | 0.00 | 0.00 | 0.00 | 45 | 1011.4 |
| 20260506152703 | 5 | 282 | 20.9 | 20.9 | 0.00 | 0.00 | 0.00 | 45 | 1011.4 |
| 20260506151803 | 5 | 296 | 4.8 | 19.3 | 0.00 | 0.00 | 0.00 | 45 | 1011.3 |
| 20260506151113 | 5 | 299 | 6.4 | 22.5 | 0.00 | 0.00 | 0.00 | 44 | 1011.2 |
| 20260506150215 | 6 | 322 | 8.0 | 9.7 | 0.00 | 0.00 | 0.00 | 41 | 1011.2 |
| 20260506145403 | 5 | 293 | 6.4 | 16.1 | 0.00 | 0.00 | 0.00 | 42 | 1011.0 |
| 20260506144714 | 5 | 288 | 3.2 | 12.9 | 0.00 | 0.00 | 0.00 | 39 | 1011.1 |
| 20260506143605 | 6 | 298 | 0.0 | 16.1 | 0.00 | 0.00 | 0.00 | 39 | 1011.1 |
| 20260506142913 | 6 | 282 | 9.7 | 17.7 | 0.00 | 0.00 | 0.00 | 40 | 1011.2 |
| 20260506142016 | 5 | 307 | 16.1 | 17.7 | 0.00 | 0.00 | 0.00 | 39 | 1011.2 |
| 20260506140903 | 5 | 269 | 4.8 | 20.9 | 0.00 | 0.00 | 0.00 | 38 | 1011.2 |
| 20260506140215 | 5 | 273 | 20.9 | 20.9 | 0.00 | 0.00 | 0.00 | 37 | 1011.3 |
| 20260506135405 | 5 | 300 | 14.5 | 20.9 | 0.00 | 0.00 | 0.00 | 37 | 1011.1 |
| 20260506134714 | 5 | 283 | 4.8 | 20.9 | 0.00 | 0.00 | 0.00 | 39 | 1011.2 |
| 20260506133603 | 5 | 294 | 11.3 | 22.5 | 0.00 | 0.00 | 0.00 | 42 | 1011.2 |
| 20260506132914 | 4 | 301 | 3.2 | 22.5 | 0.00 | 0.00 | 0.00 | 41 | 1011.1 |
| 20260506132016 | 6 | 280 | 6.4 | 17.7 | 0.00 | 0.00 | 0.00 | 39 | 1011.1 |
| 20260506130903 | 6 | 274 | 12.9 | 20.9 | 0.00 | 0.00 | 0.00 | 40 | 1011.3 |
| 20260506130216 | 7 | 295 | 11.3 | 19.3 | 0.00 | 0.00 | 0.00 | 36 | 1011.3 |
| 20260506125613 | 8 | 313 | 3.2 | 12.9 | 0.00 | 0.00 | 0.00 | 35 | 1011.3 |
| 20260506124715 | 7 | 281 | 1.6 | 20.9 | 0.00 | 0.00 | 0.00 | 39 | 1011.2 |
| 20260506123603 | 6 | 273 | 9.7 | 14.5 | 0.00 | 0.00 | 0.00 | 41 | 1011.3 |
| 20260506122915 | 6 | 271 | 8.0 | 14.5 | 0.00 | 0.00 | 0.00 | 43 | 1011.4 |
| 20260506122017 | 6 | 261 | 14.5 | 14.5 | 0.00 | 0.00 | 0.00 | 42 | 1011.4 |
| 20260506120903 | 5 | 277 | 11.3 | 11.3 | 0.00 | 0.00 | 0.00 | 41 | 1011.3 |
| 20260506120217 | 5 | 275 | 8.0 | 14.5 | 0.00 | 0.00 | 0.00 | 42 | 1011.2 |
| 20260506115403 | 6 | 292 | 14.5 | 20.9 | 0.00 | 0.00 | 0.00 | 38 | 1011.2 |
| 20260506114503 | 6 | 293 | 11.3 | 17.7 | 0.00 | 0.00 | 0.00 | 40 | 1011.2 |
| 20260506113603 | 6 | 302 | 12.9 | 14.5 | 0.00 | 0.00 | 0.00 | 40 | 1011.3 |
| 20260506112915 | 6 | 319 | 3.2 | 12.9 | 0.00 | 0.00 | 0.00 | 43 | 1011.1 |
| 20260506112018 | 5 | 293 | 4.8 | 20.9 | 0.00 | 0.00 | 0.00 | 43 | 1011.1 |
| 20260506110903 | 6 | 296 | 6.4 | 14.5 | 0.00 | 0.00 | 0.00 | 41 | 1011.1 |
| 20260506110217 | 6 | 291 | 14.5 | 17.7 | 0.00 | 0.00 | 0.00 | 41 | 1011.2 |
| 20260506105614 | 5 | 273 | 3.2 | 17.7 | 0.00 | 0.00 | 0.00 | 40 | 1011.2 |
| 20260506104716 | 7 | 270 | 16.1 | 16.1 | 0.00 | 0.00 | 0.00 | 39 | 1011.1 |
| 20260506103814 | 5 | 287 | 6.4 | 22.5 | 0.00 | 0.00 | 0.00 | 43 | 1011.0 |
| 20260506102703 | 5 | 314 | 6.4 | 27.4 | 0.00 | 0.00 | 0.00 | 41 | 1011.1 |
| 20260506101803 | 3 | 282 | 4.8 | 14.5 | 0.00 | 0.00 | 0.00 | 46 | 1011.1 |
| 20260506101116 | 3 | 287 | 14.5 | 19.3 | 0.00 | 0.00 | 0.00 | 44 | 1011.1 |
| 20260506100003 | 3 | 306 | 1.6 | 11.3 | 0.00 | 0.00 | 0.00 | 45 | 1011.1 |
| 20260506095403 | 3 | 286 | 6.4 | 19.3 | 0.00 | 0.00 | 0.00 | 44 | 1011.1 |
| 20260506094503 | 4 | 281 | 19.3 | 19.3 | 0.00 | 0.00 | 0.00 | 44 | 1011.1 |
| 20260506093603 | 4 | 270 | 11.3 | 16.1 | 0.00 | 0.00 | 0.00 | 45 | 1011.2 |
| 20260506092917 | 5 | 278 | 16.1 | 16.1 | 0.00 | 0.00 | 0.00 | 45 | 1011.2 |
| 20260506092014 | 3 | 283 | 3.2 | 12.9 | 0.00 | 0.00 | 0.00 | 47 | 1011.1 |
| 20260506091116 | 3 | 272 | 9.7 | 11.3 | 0.00 | 0.00 | 0.00 | 47 | 1011.0 |
| 20260506090005 | 3 | 289 | 12.9 | 12.9 | 0.00 | 0.00 | 0.00 | 47 | 1011.1 |
| 20260506085403 | 3 | 290 | 9.7 | 9.7 | 0.00 | 0.00 | 0.00 | 46 | 1011.1 |
| 20260506084504 | 3 | 267 | 1.6 | 6.4 | 0.00 | 0.00 | 0.00 | 50 | 1011.2 |
| 20260506083603 | 2 | 285 | 3.2 | 19.3 | 0.00 | 0.00 | 0.00 | 48 | 1011.3 |
| 20260506082917 | 3 | 273 | 8.0 | 16.1 | 0.00 | 0.00 | 0.00 | 48 | 1011.3 |
| 20260506081803 | 3 | 287 | 16.1 | 16.1 | 0.00 | 0.00 | 0.00 | 48 | 1011.2 |
| 20260506081117 | 3 | 289 | 8.0 | 16.1 | 0.00 | 0.00 | 0.00 | 48 | 1011.2 |
| 20260506080214 | 2 | 282 | 12.9 | 14.5 | 0.00 | 0.00 | 0.00 | 50 | 1011.3 |
| 20260506072918 | 2 | 280 | 6.4 | 11.3 | 0.00 | 0.00 | 0.00 | 52 | 1011.3 |
| 20260506072016 | 1 | 313 | 11.3 | 11.3 | 0.00 | 0.00 | 0.00 | 52 | 1011.3 |
| 20260506071112 | 1 | 281 | 1.6 | 14.5 | 0.00 | 0.00 | 0.00 | 53 | 1011.4 |
| 20260506061803 | 1 | 272 | 6.4 | 11.3 | 0.00 | 0.00 | 0.00 | 55 | 1011.0 |
| 20260506061113 | 1 | 270 | 3.2 | 11.3 | 0.00 | 0.00 | 0.00 | 55 | 1010.9 |
| 20260506051114 | -1 | 293 | 9.7 | 12.9 | 0.00 | 0.00 | 0.00 | 62 | 1010.8 |
| 20260506044503 | -2 | 301 | 3.2 | 14.5 | 0.00 | 0.00 | 0.00 | 65 | 1010.8 |
| 20260506043817 | -3 | 326 | 0.0 | 6.4 | 0.00 | 0.00 | 0.00 | 66 | 1010.8 |
| 20260506042703 | -3 | 320 | 3.2 | 4.8 | 0.00 | 0.00 | 0.00 | 67 | 1010.8 |
| 20260506042017 | -3 | 317 | 4.8 | 4.8 | 0.00 | 0.00 | 0.00 | 68 | 1010.8 |
| 20260506041114 | -3 | 321 | 3.2 | 3.2 | 0.00 | 0.00 | 0.00 | 67 | 1010.9 |
| 20260506040217 | -3 | 311 | 3.2 | 8.0 | 0.00 | 0.00 | 0.00 | 66 | 1010.9 |
| 20260506035613 | -2 | 317 | 8.0 | 8.0 | 0.00 | 0.00 | 0.00 | 66 | 1010.9 |
| 20260506034716 | -2 | 319 | 8.0 | 8.0 | 0.00 | 0.00 | 0.00 | 66 | 1011.0 |
| 20260506033603 | -2 | 298 | 4.8 | 16.1 | 0.00 | 0.00 | 0.00 | 66 | 1010.9 |
| 20260506032915 | -2 | 301 | 3.2 | 14.5 | 0.00 | 0.00 | 0.00 | 67 | 1010.9 |
| 20260506031803 | -2 | 330 | 6.4 | 9.7 | 0.00 | 0.00 | 0.00 | 69 | 1011.0 |
| 20260506030903 | -3 | 317 | 6.4 | 8.0 | 0.00 | 0.00 | 0.00 | 71 | 1011.0 |
| 20260506030212 | -3 | 10 | 3.2 | 6.4 | 0.00 | 0.00 | 0.00 | 74 | 1011.0 |
| 20260506025614 | -3 | 7 | 3.2 | 6.4 | 0.00 | 0.00 | 0.00 | 75 | 1011.0 |
| 20260506024716 | -5 | 302 | 3.2 | 9.7 | 0.00 | 0.00 | 0.00 | 77 | 1011.1 |
| 20260506023603 | -6 | 101 | 0.0 | 3.2 | 0.00 | 0.00 | 0.00 | 77 | 1011.1 |
| 20260506022916 | -6 | 112 | 0.0 | 3.2 | 0.00 | 0.00 | 0.00 | 77 | 1011.2 |
| 20260506021803 | -6 | 0 | 0.0 | 0.0 | 0.00 | 0.00 | 0.00 | 76 | 1011.2 |
| 20260506021116 | -6 | 0 | 0.0 | 0.0 | 0.00 | 0.00 | 0.00 | 76 | 1011.2 |
| 20260506020003 | -6 | 0 | 0.0 | 0.0 | 0.00 | 0.00 | 0.00 | 76 | 1011.2 |
| 20260506015403 | -6 | 0 | 0.0 | 0.0 | 0.00 | 0.00 | 0.00 | 76 | 1011.3 |
| 20260506014717 | -6 | 0 | 0.0 | 0.0 | 0.00 | 0.00 | 0.00 | 76 | 1011.3 |
| 20260506013603 | -5 | 135 | 0.0 | 1.6 | 0.00 | 0.00 | 0.00 | 76 | 1011.3 |
| 20260506012703 | -5 | 0 | 0.0 | 0.0 | 0.00 | 0.00 | 0.00 | 76 | 1011.4 |
| 20260506011803 | -5 | 0 | 0.0 | 0.0 | 0.00 | 0.00 | 0.00 | 77 | 1011.3 |
| 20260506011116 | -5 | 0 | 0.0 | 0.0 | 0.00 | 0.00 | 0.00 | 77 | 1011.4 |
| 20260506010214 | -5 | 0 | 0.0 | 0.0 | 0.00 | 0.00 | 0.00 | 76 | 1011.4 |
| 20260506005403 | -5 | 0 | 0.0 | 0.0 | 0.00 | 0.00 | 0.00 | 77 | 1011.5 |
| 20260506004718 | -5 | 0 | 0.0 | 0.0 | 0.00 | 0.00 | 0.00 | 77 | 1011.4 |
| 20260506003815 | -5 | 0 | 0.0 | 0.0 | 0.00 | 0.00 | 0.00 | 75 | 1011.5 |
| 20260506002703 | -5 | 0 | 0.0 | 0.0 | 0.00 | 0.00 | 0.00 | 75 | 1011.5 |
| 20260506001805 | -5 | 0 | 0.0 | 0.0 | 0.00 | 0.00 | 0.00 | 75 | 1011.5 |
| 20260506000903 | -5 | 0 | 0.0 | 0.0 | 0.00 | 0.00 | 0.00 | 75 | 1011.4 |
| 20260506000003 | -5 | 0 | 0.0 | 0.0 | 0.00 | 0.00 | 0.00 | 75 | 1011.6 |
| 20260505235403 | -5 | 0 | 0.0 | 0.0 | 0.00 | 0.00 | 0.00 | 75 | 1011.7 |
| 20260505234713 | -5 | 0 | 0.0 | 0.0 | 0.00 | 0.00 | 0.00 | 74 | 1011.5 |
| 20260505233815 | -5 | 0 | 0.0 | 0.0 | 0.00 | 0.00 | 0.00 | 73 | 1011.5 |
| 20260505232913 | -5 | 0 | 0.0 | 0.0 | 0.00 | 0.00 | 0.00 | 73 | 1011.4 |
| 20260505232015 | -5 | 0 | 0.0 | 0.0 | 0.00 | 0.00 | 0.00 | 72 | 1011.3 |
| 20260505231112 | -5 | 0 | 0.0 | 0.0 | 0.00 | 0.00 | 0.00 | 72 | 1011.4 |
| 20260505230215 | -5 | 0 | 0.0 | 0.0 | 0.00 | 0.00 | 0.00 | 71 | 1011.1 |
| 20260505225403 | -5 | 0 | 0.0 | 0.0 | 0.00 | 0.00 | 0.00 | 71 | 1011.0 |
| 20260505224714 | -5 | 0 | 0.0 | 0.0 | 0.00 | 0.00 | 0.00 | 71 | 1011.0 |
| 20260505223603 | -4 | 135 | 0.0 | 1.6 | 0.00 | 0.00 | 0.00 | 70 | 1011.0 |
| 20260505222703 | -4 | 135 | 1.6 | 1.6 | 0.00 | 0.00 | 0.00 | 69 | 1010.8 |
| 20260505222016 | -4 | 0 | 0.0 | 0.0 | 0.00 | 0.00 | 0.00 | 69 | 1010.8 |
| 20260505220903 | -4 | 112 | 1.6 | 1.6 | 0.00 | 0.00 | 0.00 | 67 | 1010.9 |
| 20260505220215 | -4 | 0 | 0.0 | 0.0 | 0.00 | 0.00 | 0.00 | 67 | 1010.8 |
| 20260505215617 | -3 | 0 | 0.0 | 0.0 | 0.00 | 0.00 | 0.00 | 67 | 1010.8 |
| 20260505214503 | -3 | 0 | 0.0 | 0.0 | 0.00 | 0.00 | 0.00 | 66 | 1010.9 |
| 20260505213817 | -3 | 0 | 0.0 | 0.0 | 0.00 | 0.00 | 0.00 | 66 | 1010.9 |
| 20260505212914 | -3 | 0 | 0.0 | 0.0 | 0.00 | 0.00 | 0.00 | 65 | 1010.8 |
| 20260505211803 | -2 | 18 | 0.0 | 1.6 | 0.00 | 0.00 | 0.00 | 65 | 1010.9 |
| 20260505211114 | -2 | 198 | 1.6 | 1.6 | 0.00 | 0.00 | 0.00 | 62 | 1010.8 |
| 20260505210216 | -2 | 328 | 0.0 | 3.2 | 0.00 | 0.00 | 0.00 | 62 | 1010.6 |
| 20260505205403 | -2 | 6 | 3.2 | 4.8 | 0.00 | 0.00 | 0.00 | 62 | 1010.5 |
| 20260505204715 | -1 | 16 | 0.0 | 9.7 | 0.00 | 0.00 | 0.00 | 61 | 1010.5 |
| 20260505203603 | -1 | 60 | 3.2 | 4.8 | 0.00 | 0.00 | 0.00 | 61 | 1010.4 |
| 20260505202915 | -1 | 42 | 0.0 | 8.0 | 0.00 | 0.00 | 0.00 | 61 | 1010.5 |
| 20260505201803 | -1 | 22 | 3.2 | 3.2 | 0.00 | 0.00 | 0.00 | 60 | 1010.5 |
| 20260505201114 | -1 | 0 | 0.0 | 0.0 | 0.00 | 0.00 | 0.00 | 59 | 1010.4 |
| 20260505200004 | -1 | 0 | 0.0 | 0.0 | 0.00 | 0.00 | 0.00 | 58 | 1010.3 |
| 20260505195403 | -1 | 0 | 0.0 | 0.0 | 0.00 | 0.00 | 0.00 | 58 | 1010.2 |
| 20260505194503 | -1 | 353 | 0.0 | 3.2 | 0.00 | 0.00 | 0.00 | 58 | 1010.0 |
| 20260505193813 | 0 | 299 | 1.6 | 4.8 | 0.00 | 0.00 | 0.00 | 59 | 1010.0 |
| 20260505192703 | 0 | 323 | 4.8 | 6.4 | 0.00 | 0.00 | 0.00 | 59 | 1009.9 |